Weather History for KVRB - July, 2013

Change the Weather History Date:

Monday, July 29, 2013

  Actual Average Record
Temperature  
Mean Temperature 80 °F 82 °F  
Max Temperature 88 °F 90 °F 97 °F (1950)
Min Temperature 71 °F 74 °F 69 °F (1976)
Degree Days  
Heating Degree Days 0 0  
Month to date heating degree days 0 0  
Since 1 June heating degree days 0 0  
Since 1 July heating degree days 0 0  
Cooling Degree Days 15 17  
Month to date cooling degree days 445 484  
Year to date cooling degree days 1857 1746  
Since 1 June cooling degree days 950 940  
Growing Degree Days 30 (Base 50)    
Moisture  
Dew Point 75 °F    
Average Humidity 86    
Maximum Humidity 100    
Minimum Humidity 72    
Precipitation  
Precipitation T in 0.18 in 1.74 in (2007)
Month to date precipitation 5.50 5.28  
Year to date precipitation 26.21 27.32  
Sea Level Pressure  
Sea Level Pressure 30.11 in    
Wind  
Wind Speed 4 mph (ESE)    
Max Wind Speed 13 mph    
Max Gust Speed 18 mph    
Visibility 10 miles    
Events Thunderstorm    
T = Trace of Precipitation, MM = Missing Value Source: NWS Daily Summary

Daily Weather History Graph

Daily Weather History Graph

Search for Another Location

Airport or City:

Trip Planner

Search our weather history database for the weather conditions in past years. The results will help you decide how hot, cold, wet, or windy it might be!

Date:

Astronomy

Jul. 29, 2013 Rise Set
Actual Time 6:43 AM EDT 8:12 PM EDT
Civil Twilight 6:17 AM EDT 8:37 PM EDT
Nautical Twilight 5:47 AM EDT 9:08 PM EDT
Astronomical Twilight 5:15 AM EDT 9:39 PM EDT
Moon 12:16 AM EDT (7/29) 1:38 PM EDT (7/29)
Length of Visible Light 14h 19m
Length of Day
13h 29m
Waning Gibbous, 51% of the Moon is Illuminated
Jul 29
Waning Gibbous
Jul 29
Last Quarter
Aug 6
New
Aug 14
First Quarter
Aug 20
Full

Hourly Weather History & Observations

Time (EDT) Temp. Heat Index Dew Point Humidity Pressure Visibility Wind Dir Wind Speed Gust Speed Precip Events Conditions
12:53 AM 73.9 °F - 73.0 °F 97% 30.08 in 10.0 mi Calm Calm - N/A   Clear
1:53 AM 73.0 °F - 72.0 °F 96% 30.06 in 10.0 mi Calm Calm - N/A   Clear
2:53 AM 72.0 °F - 71.1 °F 97% 30.06 in 10.0 mi Calm Calm - N/A   Clear
3:53 AM 72.0 °F - 72.0 °F 100% 30.04 in 9.0 mi Calm Calm - N/A   Clear
4:53 AM 72.0 °F - 72.0 °F 100% 30.05 in 10.0 mi Calm Calm - N/A   Clear
5:53 AM 72.0 °F - 71.1 °F 97% 30.06 in 10.0 mi Calm Calm - N/A   Clear
6:53 AM 71.1 °F - 71.1 °F 100% 30.08 in 10.0 mi Calm Calm - N/A   Clear
7:53 AM 75.9 °F - 75.0 °F 97% 30.09 in 10.0 mi Calm Calm - N/A   Clear
8:53 AM 82.0 °F 90.2 °F 77.0 °F 85% 30.12 in 10.0 mi SSW 4.6 mph - N/A   Clear
9:53 AM 84.0 °F 92.6 °F 75.9 °F 76% 30.12 in 10.0 mi Calm Calm - N/A   Scattered Clouds
10:53 AM 84.9 °F 93.3 °F 75.0 °F 72% 30.13 in 10.0 mi Variable 3.5 mph - N/A   Scattered Clouds
11:53 AM 84.9 °F 96.6 °F 78.1 °F 80% 30.13 in 10.0 mi ENE 6.9 mph - 0.00 in   Mostly Cloudy
12:53 PM 87.1 °F 98.8 °F 77.0 °F 72% 30.13 in 10.0 mi ENE 11.5 mph - N/A   Clear
1:45 PM 87.8 °F 97.6 °F 75.2 °F 66% 30.14 in 10.0 mi East 9.2 mph - N/A Thunderstorm Scattered Clouds
1:53 PM 88.0 °F 100.2 °F 77.0 °F 70% 30.14 in 10.0 mi East 9.2 mph - N/A Thunderstorm Thunderstorm
2:25 PM 84.2 °F 94.1 °F 77.0 °F 79% 30.13 in 10.0 mi East 10.4 mph - N/A   Clear
2:53 PM 84.0 °F 93.7 °F 77.0 °F 79% 30.12 in 10.0 mi East 11.5 mph - N/A   Scattered Clouds
3:53 PM 82.9 °F 91.8 °F 77.0 °F 82% 30.11 in 10.0 mi ESE 10.4 mph - N/A   Scattered Clouds
4:53 PM 82.9 °F 90.8 °F 75.9 °F 79% 30.12 in 10.0 mi ESE 5.8 mph - N/A   Clear
5:53 PM 84.0 °F 92.6 °F 75.9 °F 76% 30.11 in 10.0 mi East 8.1 mph - N/A   Clear
6:53 PM 82.9 °F 90.8 °F 75.9 °F 79% 30.11 in 10.0 mi ESE 8.1 mph - N/A   Clear
7:53 PM 82.0 °F 88.6 °F 75.0 °F 79% 30.12 in 10.0 mi SE 6.9 mph - N/A   Clear
8:53 PM 80.1 °F 85.8 °F 77.0 °F 90% 30.13 in 10.0 mi Calm Calm - N/A   Clear
9:53 PM 77.0 °F - 75.9 °F 96% 30.15 in 10.0 mi Calm Calm - N/A   Clear
10:53 PM 75.9 °F - 75.0 °F 97% 30.16 in 10.0 mi Calm Calm - N/A   Clear
11:53 PM 75.0 °F - 73.9 °F 96% 30.16 in 10.0 mi Calm Calm - N/A   Clear